Location: Sweet Grass
(48.9965°N, 111.9649°W)
Time: 07:17:12
(UTC+00:00)

DIWATA 2B (PO-101) - Pass Details

Date: 02 April 2023
Orbit: 581 x 594 km, 98.0° (Epoch: 03 June)

Event Time Altitude Azimuth Distance (km) Brightness Sun altitude
Exits shadow 08:21:52 14° 48° (NE) 1,682 ? -35.0°
Drops below altitude 10° 08:23:23 10° 27° (NNE) 1,911 ? -35.0°
Sets 08:26:26 0° 2° (N) 2,818 ? -34.8°
